EST,Max TemperatureF,Mean TemperatureF,Min TemperatureF,Max Dew PointF,MeanDew PointF,Min DewpointF,Max Humidity, Mean Humidity, Min Humidity, Max Sea Level PressureIn, Mean Sea Level PressureIn, Min Sea Level PressureIn, Max VisibilityMiles, Mean VisibilityMiles, Min VisibilityMiles, Max Wind SpeedMPH, Mean Wind SpeedMPH, Max Gust SpeedMPH,PrecipitationIn, CloudCover, Events, WindDirDegrees
2012-12-1,68,64,59,61,60,57,94,86,76,30.33,30.29,30.24,10,8,0,12,3,,0.05,7,Fog-Rain,6
2012-12-2,75,65,55,62,57,53,94,88,55,30.34,30.28,30.26,10,4,0,12,1,,0.00,4,Fog,66
2012-12-3,70,64,57,63,61,54,94,87,71,30.33,30.28,30.25,10,8,0,8,2,,0.01,7,Fog-Rain,121
2012-12-4,77,65,53,63,54,51,94,83,43,30.33,30.27,30.24,10,6,0,10,1,16,0.00,1,Fog,112
2012-12-5,73,62,51,61,55,48,94,84,51,30.23,30.17,30.11,10,6,0,9,2,,0.01,5,Fog-Rain,57
2012-12-6,70,66,63,63,61,59,90,85,71,30.12,30.06,30.03,10,8,2,13,7,20,0.03,7,Rain,46
2012-12-7,64,60,57,61,58,54,94,89,82,30.06,30.01,29.98,10,3,0,10,6,,0.00,8,Fog,26
2012-12-8,68,62,55,61,59,54,94,90,76,30.09,30.06,30.02,10,4,0,7,2,,0.00,7,Fog,86
2012-12-9,75,66,57,67,60,55,94,89,73,30.12,30.06,30.02,10,4,0,8,1,,0.01,6,Fog,23
2012-12-10,81,69,57,68,62,55,94,86,54,30.01,29.93,29.84,10,5,0,13,3,,0.38,6,Fog-Rain-Thunderstorm,222
2012-12-11,80,71,62,67,65,61,100,86,56,30.06,29.94,29.85,10,6,0,10,4,,0.01,5,Fog,228
2012-12-12,64,62,59,61,58,56,94,90,86,30.13,30.09,30.04,10,6,1,10,6,,1.08,8,Rain-Thunderstorm,13
2012-12-13,62,56,50,59,50,46,93,88,83,30.28,30.21,30.09,10,7,3,13,9,22,0.08,8,Rain,357
2012-12-14,59,54,50,52,50,47,89,81,69,30.31,30.23,30.18,10,8,3,13,8,21,0.00,7,,359
2012-12-15,68,62,55,61,56,50,93,84,75,30.20,30.14,30.10,10,7,0,9,6,,0.00,7,Fog,47
2012-12-16,77,65,53,64,58,53,100,87,58,30.10,30.04,29.95,10,5,0,8,1,,0.01,3,Fog,156
2012-12-17,78,68,59,63,60,56,94,80,56,29.97,29.91,29.81,10,8,0,14,4,,0.10,3,Fog,226
2012-12-18,73,60,48,65,54,41,94,72,34,30.05,29.93,29.85,10,10,7,14,6,25,0.00,2,,269
2012-12-19,70,56,42,48,43,37,86,69,32,30.15,30.10,30.05,10,10,2,9,1,,0.00,0,,101
2012-12-20,79,64,48,66,56,44,94,79,54,30.09,29.97,29.84,10,8,1,17,5,26,0.60,3,Rain,201
2012-12-21,62,54,45,46,25,16,56,38,21,30.17,30.05,29.90,10,10,10,23,15,31,0.00,1,,288
2012-12-22,59,48,36,33,22,18,82,43,21,30.28,30.22,30.18,10,10,10,15,9,22,0.00,0,,296
2012-12-23,62,47,32,41,31,18,82,58,21,30.28,30.21,30.16,10,10,10,6,1,,0.00,0,,321
2012-12-24,70,58,45,57,47,40,90,67,47,30.16,30.05,29.97,10,10,9,13,4,18,0.02,2,Rain,208
2012-12-25,75,66,57,60,56,49,87,73,55,30.03,29.97,29.88,10,10,10,14,6,,0.00,1,,179
2012-12-26,72,58,43,63,52,32,88,67,44,29.99,29.80,29.69,10,9,2,21,14,29,0.21,3,Rain,239
2012-12-27,59,48,37,39,34,31,86,64,41,30.10,30.05,29.99,10,9,6,14,9,20,0.00,0,,278
2012-12-28,63,50,36,55,43,33,89,76,52,30.16,30.05,29.91,10,10,7,9,2,,0.00,1,,144
2012-12-29,73,58,44,67,56,31,90,75,46,30.17,29.91,29.79,10,9,4,21,13,31,0.20,6,Rain-Thunderstorm,250
2012-12-30,52,44,37,37,31,28,82,61,41,30.41,30.35,30.19,10,10,10,22,12,26,0.00,0,,2
2012-12-31,64,52,41,51,44,37,93,78,58,30.41,30.31,30.24,10,8,0,8,4,,0.00,1,Fog,3